Weather in Denpasar

Indonesia     8°40′56″S   115°13′09″E
temp.,
°C
wind,
m/s
gust,
m/s
humid.,
%
clouds,
%
prec.,
mm/h
press.,
hPa
HPBL,
m
24 january, mon
mon2423:00+28w797678 0.4 10081006
02:00+28w8107385 0.6 10061239
05:00+28w81075100 0.2 10061111
08:00+28w81073100 0.2 10081181
11:00+29w8107265 0.0 10071115
14:00+29w81073100 0.0 10041063
17:00+29w91176100 0.0 1004830
20:00+28w8107698 0.1 1006890
25 january, tue
tue2523:00+28wnw8107879 0.1 1007926
02:00+28wnw8107933 0.4 1005974
05:00+28wnw9127952 0.6 1005972
08:00+28wnw811735 0.6 1007879
11:00+28w797117 0.0 1007935
14:00+29wsw89715 0.0 1004844
17:00+28wsw81080100 1.1 1004608
20:00+28w7877100 3.4 1006770
26 january, wed
wed2623:00+28w78785 1.9 1007714
02:00+28w787996 2.6 1005678
05:00+27wnw798171 2.4 1006710
08:00+27wnw5782100 3.3 1007519
11:00+28wnw587799 0.1 1007743
14:00+29wsw797654 0.4 1005741
17:00+28wsw91181100 0.8 1005704
20:00+28w7980100 3.4 1007822
27 january, thu
thu2723:00+27wnw6884100 3.1 1008669
02:00+27wnw688370 5.7 1006588
05:00+27wnw688232 2.1 1007683
08:00+27w688189 4.2 1008747
11:00+28wnw7979100 1.0 1008847
14:00+29w897486 1.6 1006977
17:00+28w7978100 0.4 1006828
20:00+28w7877100 2.3 1008959
28 january, fri
fri2823:00+28w6877100 0.6 1008914
02:00+28w5776100 1.1 1007908
05:00+28w5776100 0.6 1007892
08:00+28w6774100 0.9 1008989
11:00+29w677296 0.3 10081039
14:00+28wsw7876100 0.6 1006818
17:00+28wsw6774100 1.2 1006778
20:00+29wsw6773100 1.6 10081038